Regional Weather Roundup
Issued by NWS

Home | Current Version | Previous Version | Graphics & Text | Print | Product List | Glossary On
Versions: 1 2 3 4 5 6 7 8 9 10 11 12 13 14 15 16 17 18 19 20 21 22 23 24 25 26 27 28 29 30 31 32 33 34 35 36 37 38 39 40 41 42 43 44 45 46 47 48 49 50
000
ASUS43 KMPX 031101
RWRMN
WEATHER ROUNDUP FOR MINNESOTA
NATIONAL WEATHER SERVICE TWIN CITIES/CHANHASSEN MN
600 AM CDT WED JUN 03 2015


NOTE: "FAIR" INDICATES FEW OR NO CLOUDS BELOW 12,000 FEET WITH NO
SIGNIFICANT WEATHER AND/OR OBSTRUCTIONS TO VISIBILITY. N/A MEANS
CURRENT SKY AND/OR WEATHER CONDITIONS ARE NOT AVAILABLE.

MNZ060>063-068>070-031200-
   Twin Cities Metro

CITY           SKY/WX    TMP DP  RH WIND       PRES   REMARKS
TWIN CITIES    CLOUDY    64  55  72 SE12      29.88F
ST PAUL        CLOUDY    63  56  78 SE12      29.89F
CRYSTAL        CLOUDY    65  55  70 S9        29.86F
BLAINE         MOCLDY    66  55  68 S12       29.87F
LAKEVILLE      CLOUDY    63  55  77 S8        29.89F
EDEN PRAIRIE   CLOUDY    65  55  70 S9        29.86F
SOUTH ST PAUL  CLOUDY    64  55  71 S6        29.89F
LAKE ELMO      CLOUDY    63  55  77 S9        29.90F
$$
MNZ001>005-007-008-013>017-022>024-027-028-031200-
   Northwest Minnesota

CITY           SKY/WX    TMP DP  RH WIND       PRES   REMARKS
BEMIDJI        MOCLDY    57  55  95 E6        29.76R
HALLOCK        CLOUDY    54  52  94 N9        29.81R
ROSEAU         CLOUDY    59  54  82 NE10      29.81R HAZE
WARROAD        FOG       57  54  88 NE9       29.81R VSB 1/2
THIEF RVR FALL CLOUDY    59  57  94 NE9       29.77R
CROOKSTON      CLOUDY    61  59  94 NE6       29.75R
FOSSTON        MOCLDY    59  57  94 CALM      29.75R
DETROIT LAKES  MOCLDY    61  59  94 S6        29.74S
MOORHEAD       CLOUDY    61  59  94 W12       29.72R FOG
PARK RAPIDS    CLOUDY    63  56  78 SE9       29.76S
MAHNOMEN       FAIR      61  58  89 SE6       29.73R
$$
MNZ006-009>011-018-025>026-031200-
   North Central Minnesota

CITY           SKY/WX    TMP DP  RH WIND       PRES   REMARKS
BAUDETTE       CLOUDY    59  57  93 NE6       29.79S
FLAG ISLAND    CLOUDY    57  55  94 NE9       29.81R
INTL FALLS     CLOUDY    56  55  97 SE3       29.82R
WASKISH        PTCLDY    57  55  94 E3        29.80R
BIG FORK       CLOUDY    57  55  94 CALM      29.83R
LONGVILLE      CLOUDY    61  57  88 SE7       29.80F
GRAND RAPIDS   CLOUDY    61  54  77 S17       29.81F
CRANE LAKE     LGT RAIN  55  55 100 CALM      29.84R
ORR            CLOUDY    55  54  94 SE1       29.81R
COOK           LGT RAIN  55  55 100 SE3       29.84R
WALKER         FAIR      59  56  91 SE5       29.77R
$$
MNZ012-019>021-037-031200-
   Northeast Minnesota

CITY           SKY/WX    TMP DP  RH WIND       PRES   REMARKS
DULUTH         LGT RAIN  57  51  80 N3G16     29.91R
ELY            RAIN      54  54 100 SE12      29.86F
HIBBING        RAIN      56  54  93 SE8       29.83F
EVELETH        LGT RAIN  54  54 100 SE5       29.85F
DULUTH HARBOR  LGT RAIN  46  43  87 NE12      29.92R
TWO HARBORS    TSTM      57  52  82 CALM      29.91R
SILVER BAY     LGT RAIN  55  54  94 CALM      29.92R
GRAND MARAIS     N/A     45  42  89 CALM      29.93R
G MARAIS ARPRT LGT RAIN  50  46  87 S3        29.94S
$$
MNZ029>031-032-039>041-046>048-054>057-064-031200-
   West Central Minnesota

CITY           SKY/WX    TMP DP  RH WIND       PRES   REMARKS
FERGUS FALLS   MOCLDY    64  59  82 S12       29.74S
WHEATON        CLOUDY    64  61  88 SW8       29.76S
MORRIS         CLOUDY    63  57  82 SE8       29.76S
ALEXANDRIA     MOCLDY    62  56  80 S12       29.79F
ELBOW LAKE     FAIR      61  58  89 S10       29.75F
WADENA         PTCLDY    61  55  82 S9        29.75S
GLENWOOD       CLOUDY    63  57  82 S12       29.79F
APPLETON       CLOUDY    64  59  82 S7        29.76F
BENSON         CLOUDY    63  55  77 S8        29.78F
ORTONVILLE     CLOUDY    64  59  82 SE5       29.76S
MADISON        CLOUDY    64  61  88 S3        29.77S
WILLMAR        FAIR      64  57  77 S8        29.82F
$$
MNZ033>034-036-042>043-049>051-058-059-031200-
   Central Minnesota

CITY           SKY/WX    TMP DP  RH WIND       PRES   REMARKS
ST CLOUD       CLOUDY    64  56  75 S14       29.83S
SAUK CENTRE    CLOUDY    61  56  83 S10       29.81R
PAYNESVILLE    CLOUDY    61  55  82 SE10G22   29.82S
AITKIN         CLOUDY    63  55  77 SE6       29.81S
PINE RIVER     MOCLDY    61  55  82 SE5       29.83R
BRAINERD       PTCLDY    60  55  83 S12       29.81S
STAPLES        CLEAR     61  55  82 S10       29.78R
LONG PRAIRIE   FAIR      59  54  82 S12       29.80S
LITTLE FALLS   CLOUDY    61  54  77 SE7       29.81S
LITCHFIELD     CLOUDY    64  59  82 SE7       29.83F
BUFFALO        CLOUDY    64  55  71 S7        29.86S
MAPLE LAKE     CLOUDY    65  57  76 S6        29.85S
$$
MNZ037-044-045-052-053-031200-
   East Central Minnesota

CITY           SKY/WX    TMP DP  RH WIND       PRES   REMARKS
PRINCETON      MOCLDY    64  55  72 SE7       29.85S
MORA           CLOUDY    63  54  72 SE6       29.86S
CAMBRIDGE      MOCLDY    66  54  63 SE7       29.84F
RUSH CITY      CLOUDY    63  54  74 S13G20    29.86F
MOOSE LAKE     CLOUDY    63  52  67 S5        29.85S
HINCKLEY       CLOUDY    63  54  72 CALM      29.88R
CLOQUET        RAIN      52  48  87 E5        29.88R
MCGREGOR       CLOUDY    59  55  88 SE10      29.84S
$$
MNZ071>073-080-081-089-090-097-098-031200-
   Southwest Minnesota

CITY           SKY/WX    TMP DP  RH WIND       PRES   REMARKS
MONTEVIDEO     CLOUDY    64  61  88 S8        29.78F
GRANITE FALLS  CLOUDY    65  59  81 SE9       29.81F
CANBY          CLOUDY    66  60  80 SW5       29.78R
MARSHALL       CLOUDY    64  57  77 S8        29.79S
REDWOOD FALLS  CLOUDY    65  57  75 S10       29.81F
OLIVIA         CLOUDY    61  54  77 S9        29.81F
PIPESTONE      CLOUDY    63  59  88 S7        29.81S
WINDOM         CLOUDY    63  55  77 S7        29.84F
WORTHINGTON    CLOUDY    63  54  72 S10       29.83S
JACKSON        CLOUDY    63  57  82 S12       29.86F
TRACY          CLOUDY    64  59  83 S15G23    29.80F
SLAYTON        CLOUDY    62  59  90 S10       29.82S
$$
MNZ065>067-074>077-082>085-091>093-031200-
   South Central Minnesota

CITY           SKY/WX    TMP DP  RH WIND       PRES   REMARKS
MANKATO        CLOUDY    64  55  72 S12       29.86F
NEW ULM        CLOUDY    63  55  77 S10       29.84F THUNDER
ST JAMES       CLOUDY    64  57  77 S13       29.86S
FAIRMONT       CLOUDY    63  52  67 S12       29.87R
GLENCOE        CLOUDY    65  58  79 SE7       29.85F
FARIBAULT      CLOUDY    63  55  77 SE12      29.90S
OWATONNA       CLOUDY    63  54  72 S10       29.90F
WASECA         CLOUDY    63  54  72 S10       29.90F
ALBERT LEA     CLOUDY    63  55  77 S12G17    29.90F
$$
MNZ078>079-086>088-094>096-031200-
   Southeast Minnesota

CITY           SKY/WX    TMP DP  RH WIND       PRES   REMARKS
ROCHESTER      CLOUDY    60  54  80 S12       29.97R
RED WING       PTCLDY    63  54  72 SE8       29.92S
STANTON        CLOUDY    64  55  73 S9        29.89F
DODGE CENTER   CLOUDY    61  55  82 S14G20    29.93S
WINONA         MOCLDY    59  52  77 SE5       29.98R
AUSTIN         CLOUDY    61  54  77 S10       29.93S
PRESTON        CLOUDY    57  52  84 S9        29.98R
$$
ABBREVIATIONS USED IN REMARKS
   TC - TEMPERATURES IN CELSIUS
  WCI - WIND CHILL INDEX
   HX - HEAT INDEX
  VSB - VISIBILITY
$$



USA.gov is the U.S. government's official web portal to all federal, state and local government web resources and services.